When you browse on this site, cookies collect data to enhance your experience and personalize the content and advertising you see.
Visit our Privacy Policy to learn more. By continuing to use the site, you agree to this use of cookies and data.
  • In Sweden
  • List of Countries
  • For 7 days
  • Water Temperature
  • Weather Map
  • Weather Widgets
  • user-avatar
    Login

    Hourly Weather Boston

    Today, 25 August, Sunday

    Time Temperature Precipitation Wind Pressure Humidity
    00:00 +19°C° 0 mm 2 mps 763 mmHg 74%
    01:00 +18°C° 0 mm 2 mps 763 mmHg 74%
    02:00 +19°C° 0 mm 1 mps 763 mmHg 73%
    03:00 +19°C° 0 mm 1 mps 763 mmHg 73%
    04:00 +19°C° 0 mm 1 mps 763 mmHg 73%
    05:00 +19°C° 0 mm 1 mps 763 mmHg 72%
    06:00 +18°C° 0 mm 2 mps 762 mmHg 72%
    07:00 +20°C° 0 mm 2 mps 763 mmHg 66%
    08:00 +23°C° 0 mm 2 mps 763 mmHg 60%
    09:00 +25°C° 0 mm 2 mps 763 mmHg 54%
    10:00 +26°C° 0 mm 2 mps 763 mmHg 51%
    11:00 +28°C° 0 mm 2 mps 763 mmHg 47%
    12:00 +29°C° 0 mm 2 mps 763 mmHg 43%
    13:00 +29°C° 0 mm 2 mps 763 mmHg 42%
    14:00 +29°C° 0 mm 3 mps 763 mmHg 41%
    15:00 +30°C° 0 mm 3 mps 763 mmHg 40%
    16:00 +28°C° 0 mm 3 mps 763 mmHg 46%
    17:00 +27°C° 0 mm 4 mps 763 mmHg 52%
    18:00 +25°C° 0 mm 4 mps 763 mmHg 59%
    19:00 +25°C° 0 mm 4 mps 763 mmHg 61%
    20:00 +23°C° 0 mm 4 mps 763 mmHg 63%
    21:00 +22°C° 0 mm 4 mps 763 mmHg 65%
    22:00 +21°C° 0 mm 4 mps 763 mmHg 66%
    23:00 +21°C° 0 mm 3 mps 763 mmHg 67%

    Tomorrow, 26 August, Monday

    Time Temperature Precipitation Wind Pressure Humidity
    00:00 +20°C° 0 mm 3 mps 763 mmHg 68%
    01:00 +20°C° 0 mm 3 mps 763 mmHg 69%
    02:00 +19°C° 0 mm 3 mps 763 mmHg 71%
    03:00 +19°C° 0 mm 2 mps 763 mmHg 73%
    04:00 +19°C° 0 mm 2 mps 762 mmHg 74%
    05:00 +19°C° 0 mm 2 mps 762 mmHg 75%
    06:00 +19°C° 0 mm 2 mps 762 mmHg 77%
    07:00 +21°C° 0 mm 2 mps 762 mmHg 70%
    08:00 +24°C° 0 mm 2 mps 762 mmHg 63%
    09:00 +25°C° 0 mm 2 mps 762 mmHg 57%
    10:00 +27°C° 0 mm 2 mps 762 mmHg 53%
    11:00 +28°C° 0 mm 2 mps 762 mmHg 49%
    12:00 +29°C° 0 mm 2 mps 762 mmHg 45%
    13:00 +30°C° 0 mm 2 mps 762 mmHg 43%
    14:00 +30°C° 0 mm 3 mps 761 mmHg 42%
    15:00 +30°C° 0 mm 3 mps 761 mmHg 40%
    16:00 +29°C° 0 mm 2 mps 761 mmHg 44%
    17:00 +28°C° 0 mm 2 mps 761 mmHg 48%
    18:00 +27°C° 0 mm 1 mps 761 mmHg 51%
    19:00 +26°C° 0 mm 1 mps 761 mmHg 56%
    20:00 +24°C° 0 mm 2 mps 761 mmHg 61%
    21:00 +23°C° 0 mm 2 mps 762 mmHg 66%
    22:00 +23°C° 0 mm 2 mps 762 mmHg 70%
    23:00 +21°C° 0 mm 2 mps 762 mmHg 74%

    Day after tomorrow, 27 August, Tuesday

    Time Temperature Precipitation Wind Pressure Humidity
    00:00 +20°C° 0 mm 2 mps 762 mmHg 78%
    01:00 +20°C° 0 mm 2 mps 762 mmHg 79%
    02:00 +20°C° 0 mm 2 mps 762 mmHg 81%
    03:00 +19°C° 0 mm 3 mps 761 mmHg 83%
    04:00 +19°C° 0 mm 2 mps 761 mmHg 82%
    05:00 +19°C° 0 mm 2 mps 761 mmHg 82%
    06:00 +19°C° 0 mm 2 mps 761 mmHg 81%
    07:00 +20°C° 0 mm 2 mps 762 mmHg 76%
    08:00 +22°C° 0 mm 1 mps 762 mmHg 71%
    09:00 +23°C° 0 mm 1 mps 762 mmHg 66%
    10:00 +24°C° 0 mm 2 mps 762 mmHg 62%
    11:00 +25°C° 0 mm 2 mps 762 mmHg 58%
    12:00 +26°C° 0 mm 2 mps 762 mmHg 54%
    13:00 +26°C° 0 mm 2 mps 762 mmHg 55%
    14:00 +26°C° 0 mm 2 mps 761 mmHg 55%
    15:00 +26°C° 0 mm 2 mps 761 mmHg 56%
    16:00 +25°C° 0.1 mm 3 mps 761 mmHg 60%
    17:00 +24°C° 0.1 mm 3 mps 761 mmHg 64%
    18:00 +22°C° 0.1 mm 3 mps 761 mmHg 68%
    19:00 +21°C° 0.1 mm 3 mps 761 mmHg 71%
    20:00 +21°C° 0.1 mm 3 mps 761 mmHg 74%
    21:00 +20°C° 0.1 mm 3 mps 761 mmHg 77%
    22:00 +20°C° 0.3 mm 3 mps 760 mmHg 78%
    23:00 +19°C° 0.3 mm 3 mps 760 mmHg 79%

    28 August, Wednesday

    Time Temperature Precipitation Wind Pressure Humidity
    00:00 +19°C° 0.3 mm 2 mps 760 mmHg 80%
    01:00 +19°C° 0 mm 2 mps 759 mmHg 80%
    02:00 +18°C° 0 mm 2 mps 759 mmHg 79%
    03:00 +19°C° 0 mm 1 mps 759 mmHg 78%
    04:00 +18°C° 0 mm 2 mps 758 mmHg 78%
    05:00 +18°C° 0 mm 2 mps 758 mmHg 77%
    06:00 +18°C° 0 mm 2 mps 758 mmHg 77%
    07:00 +20°C° 0 mm 2 mps 758 mmHg 73%
    08:00 +23°C° 0 mm 2 mps 757 mmHg 70%
    09:00 +24°C° 0 mm 2 mps 757 mmHg 66%
    10:00 +26°C° 0 mm 2 mps 757 mmHg 62%
    11:00 +27°C° 0 mm 2 mps 757 mmHg 57%
    12:00 +28°C° 0 mm 2 mps 756 mmHg 53%
    13:00 +28°C° 0.2 mm 2 mps 756 mmHg 53%
    14:00 +28°C° 0.2 mm 2 mps 756 mmHg 53%
    15:00 +28°C° 0.2 mm 2 mps 756 mmHg 54%
    16:00 +26°C° 0.4 mm 3 mps 756 mmHg 60%
    17:00 +25°C° 0.4 mm 3 mps 756 mmHg 67%
    18:00 +24°C° 0.4 mm 3 mps 756 mmHg 74%
    19:00 +22°C° 0.3 mm 3 mps 756 mmHg 79%
    20:00 +21°C° 0.3 mm 2 mps 756 mmHg 83%
    21:00 +19°C° 0.3 mm 2 mps 756 mmHg 88%
    22:00 +19°C° 0.4 mm 2 mps 756 mmHg 88%
    23:00 +19°C° 0.4 mm 2 mps 756 mmHg 89%

    29 August, Thursday

    Time Temperature Precipitation Wind Pressure Humidity
    00:00 +18°C° 0.4 mm 2 mps 756 mmHg 90%
    01:00 +18°C° 0 mm 3 mps 757 mmHg 88%
    02:00 +17°C° 0 mm 3 mps 757 mmHg 86%
    03:00 +17°C° 0 mm 4 mps 757 mmHg 84%
    04:00 +15°C° 0 mm 4 mps 757 mmHg 86%
    05:00 +14°C° 0 mm 5 mps 758 mmHg 87%
    06:00 +14°C° 0 mm 5 mps 758 mmHg 89%
    07:00 +15°C° 0 mm 5 mps 759 mmHg 79%
    08:00 +16°C° 0 mm 6 mps 759 mmHg 69%
    09:00 +17°C° 0 mm 6 mps 760 mmHg 60%
    10:00 +17°C° 0 mm 6 mps 761 mmHg 57%
    11:00 +19°C° 0 mm 5 mps 761 mmHg 54%
    12:00 +20°C° 0 mm 5 mps 761 mmHg 51%
    13:00 +20°C° 0 mm 5 mps 761 mmHg 50%
    14:00 +21°C° 0 mm 5 mps 762 mmHg 50%
    15:00 +21°C° 0 mm 5 mps 762 mmHg 49%
    16:00 +20°C° 0 mm 4 mps 762 mmHg 54%
    17:00 +19°C° 0 mm 4 mps 762 mmHg 58%
    18:00 +19°C° 0 mm 3 mps 762 mmHg 63%
    19:00 +18°C° 0 mm 3 mps 763 mmHg 67%
    20:00 +17°C° 0 mm 3 mps 763 mmHg 71%
    21:00 +16°C° 0 mm 3 mps 763 mmHg 75%
    22:00 +16°C° 0 mm 3 mps 763 mmHg 77%
    23:00 +14°C° 0 mm 4 mps 764 mmHg 79%

    30 August, Friday

    Time Temperature Precipitation Wind Pressure Humidity
    00:00 +14°C° 0 mm 4 mps 764 mmHg 80%
    01:00 +14°C° 0 mm 4 mps 764 mmHg 81%
    02:00 +14°C° 0 mm 4 mps 763 mmHg 82%
    03:00 +14°C° 0 mm 4 mps 763 mmHg 83%
    04:00 +14°C° 0 mm 4 mps 764 mmHg 84%
    05:00 +13°C° 0 mm 5 mps 764 mmHg 86%
    06:00 +13°C° 0 mm 5 mps 764 mmHg 87%
    07:00 +15°C° 0 mm 5 mps 764 mmHg 81%
    08:00 +16°C° 0 mm 5 mps 764 mmHg 75%
    09:00 +19°C° 0 mm 5 mps 764 mmHg 69%
    10:00 +19°C° 0 mm 5 mps 764 mmHg 65%
    11:00 +20°C° 0 mm 5 mps 764 mmHg 61%
    12:00 +21°C° 0 mm 5 mps 764 mmHg 57%
    13:00 +21°C° 0 mm 5 mps 764 mmHg 58%
    14:00 +21°C° 0 mm 5 mps 763 mmHg 59%
    15:00 +21°C° 0 mm 5 mps 763 mmHg 60%
    16:00 +20°C° 0 mm 5 mps 763 mmHg 62%
    17:00 +20°C° 0 mm 4 mps 762 mmHg 65%
    18:00 +19°C° 0 mm 4 mps 762 mmHg 67%
    19:00 +19°C° 0 mm 4 mps 762 mmHg 69%
    20:00 +18°C° 0 mm 4 mps 762 mmHg 72%
    21:00 +16°C° 0 mm 5 mps 762 mmHg 74%
    22:00 +16°C° 0 mm 5 mps 762 mmHg 75%
    23:00 +16°C° 0 mm 5 mps 761 mmHg 77%
    Show more